Regional Weather Roundup
Issued by NWS Northern Indiana

Home | Current Version | Previous Version | Graphics & Text | Print | Product List | Glossary On
Versions: 1 2 3 4 5 6 7 8 9 10 11 12 13 14 15 16 17 18 19 20 21 22 23 24 25 26 27 28 29 30 31 32 33 34 35 36 37 38 39 40 41 42 43 44 45 46 47 48 49 50
720
ASUS43 KIWX 252300
RWRIWX

KIWX WEATHER ROUNDUP
NATIONAL WEATHER SERVICE NORTHERN INDIANA
700 PM EDT WED MAY 25 2016

NOTE: "FAIR" INDICATES FEW OR NO CLOUDS BELOW 12,000 FEET WITH NO
SIGNIFICANT WEATHER AND/OR OBSTRUCTIONS TO VISIBILITY.

* THESE STATIONS ARE NOT UNDER NWS QUALITY CONTROL. THEY ALSO MAY NOT
  REPORT WEATHER SUCH AS PRECIPITATION OR FOG.

INZ001>027-260000-
NORTHERN INDIANA

CITY           SKY/WX    TMP DP  RH WIND       PRES   REMARKS
GARY*          PTSUNNY   73  70  88 S14       29.91R
SOUTH BEND     CLOUDY    84  58  40 S15       29.92F
ELKHART*       MOSUNNY   84  64  51 S8        29.93F
GOSHEN         MOSUNNY   84  56  38 S10       29.93F
ANGOLA*        SUNNY     82  61  47 S10       29.96F
FORT WAYNE     PTSUNNY   83  58  42 S15       29.96F

$$
INZ028>050-260000-
CENTRAL INDIANA

CITY           SKY/WX    TMP DP  RH WIND       PRES   REMARKS
LAFAYETTE      MOSUNNY   81  62  52 SW10G21   29.92F
KOKOMO*        MOSUNNY   82  63  51 S16       29.95F
MUNCIE*        MOSUNNY   85  59  41 S13G21    29.97F
INDIANAPOLIS   PTSUNNY   79  64  60 SW17      29.96F

$$
MIZ043>046-050>051-056>058-064>065-071>073-077>080-260000-
SOUTHWEST LOWER MICHIGAN

CITY           SKY/WX    TMP DP  RH WIND       PRES   REMARKS
BATTLE CREEK   SUNNY     82  59  45 S12       29.95F
BENTON HARBOR  CLOUDY    83  59  44 S8        29.90F
COLDWATER*     MOSUNNY   81  58  45 S9        29.95F
HILLSDALE*     CLOUDY    81  51  34 SE9       29.98F
HOLLAND        PTSUNNY   83  63  50 VRB3      29.92F
GRAND RAPIDS   PTSUNNY   85  58  39 S13       29.93F
KALAMAZOO      MOSUNNY   84  57  39 S9G18     29.93F
STURGIS*       SUNNY     82  59  46 S12       29.94F
THREE RIVERS*  FAIR      83  57  40 S8        29.94F

$$
OHZ001>008-015>018-024>025-260000-
NORTHWEST OHIO

CITY           SKY/WX    TMP DP  RH WIND       PRES   REMARKS
DEFIANCE       PTSUNNY   85  59  41 SE7       29.96F
FINDLAY        MOSUNNY   82  57  42 S14       29.99F
TOLEDO EXPRESS PTSUNNY   80  57  45 SE7       29.99F
TOLEDO METCALF CLOUDY    80  58  46 SE10      30.01F
LIMA           MOSUNNY   81  59  47 S13       30.00F

$$
AND FOR LAKE MICHIGAN COASTAL AND OPEN LAKE BUOY OBSERVATIONS

STATION/POSITION TEMP    WIND        PRES    VSBY  WAVE
                 AIR SEA DIR/SP/G                  HT/PER
                 (F)     (DEG/KT/KT) (MB)    (MI)  (FT/S)
CALUMET HARBOR            70/ 10/ 12 1011.3F
MICHIGAN CITY     81     170/  5/  8   N/A
BURNS HARBOR      87     190/ 12/ 17 1012.5F
SAINT JOSEPH      87     180/  6/  9 1013.2F
SOUTH LAKE BUOY   57 53   80/  6/  6 1012.6          0
4 MI NW BRIDGMAN  69 63   30/  2/  4   N/A           0
MICHIGAN CITY     68 61   50/  6/ 10   N/A           0

$$
&&




USA.gov is the U.S. government's official web portal to all federal, state and local government web resources and services.